Погода в Каннамалле

Австралия     28°04′03″S   145°41′02″E
темп.,
°C
ветер,
м/с
пор.,
м/с
влажн.,
%
обл.,
%
осадки,
мм/ч
давл.,
гПа
погр.,
м
21 апреля, ср
ср2101:00+18ююз46220 0.0 101586
04:00+17ююз33270 0.0 101519
07:00+16ююз44290 0.0 101736
10:00+20ю56315 0.0 1018546
13:00+23ю44262 0.0 10161370
16:00+24ююз44250 0.0 10151745
19:00+21ю33320 0.0 101636
22:00+18ююв45370 0.0 101761
22 апреля, чт
чт2201:00+16ююв46420 0.0 101792
04:00+14ю46420 0.0 1016103
07:00+13юв33380 0.0 101824
10:00+18юв12290 0.0 1019558
13:00+22ююз45280 0.0 10161828
16:00+23ююз45260 0.0 10142116
19:00+20ю44310 0.0 101751
22:00+18ююв44350 0.0 101845
23 апреля, пт
пт2301:00+16ююв46380 0.0 101980
04:00+14ююв46420 0.0 101981
07:00+13юв34430 0.0 102056
10:00+19юв44280 0.0 1021695
13:00+22ююв33230 0.0 10191599
16:00+23ююв44200 0.0 10181611
19:00+19юв45280 0.0 102065
22:00+17вюв33350 0.0 102231
24 апреля, сб
сб2401:00+16вюв33410 0.0 102221
04:00+15ююв33445 0.0 102126
07:00+14ююв33490 0.0 102334
10:00+20юв44350 0.0 1024669
13:00+23юв44271 0.0 10211432
16:00+23юв552530 0.0 10201617
19:00+20юв4634100 0.0 102290
22:00+18вюв4738100 0.0 1023109
25 апреля, вс
вс2501:00+17юв4442100 0.0 102349
04:00+16юв334649 0.0 102234
07:00+14юв46520 0.0 102483
10:00+20юв56370 0.0 1025838
13:00+23ююв55280 0.0 10221515
16:00+23ююв66241 0.0 10211652
19:00+19ююв47310 0.0 1022108
22:00+17юв44360 0.0 102447